N6ZQK Weather Reports


Display with metric or nautical units.
time (UTC)temp
F
wind
direction
speed
MPH
gust
MPH
rain 1hr
in
rain 24hr
in
rain mn
in
humidity
%
barometer
mb
20260901025403 67 202 0.0 2.0 0.00 0.00 0.00 52 1008.6
20260901024803 67 202 0.0 2.0 0.00 0.00 0.00 51 1008.6
20260901024203 68 202 0.0 2.0 0.00 0.00 0.00 50 1008.6
20260901023603 68 202 0.0 2.0 0.00 0.00 0.00 49 1008.6
20260901023003 68 202 0.0 2.0 0.00 0.00 0.00 48 1008.4
20260901022404 69 202 0.0 3.0 0.00 0.00 0.00 47 1008.5
20260901021803 70 202 0.0 3.0 0.00 0.00 0.00 45 1008.5
20260901021203 71 202 0.0 3.0 0.00 0.00 0.00 43 1008.3
20260901020603 71 202 0.0 3.0 0.00 0.00 0.00 43 1008.4
20260901020003 71 189 1.0 5.0 0.00 0.00 0.00 42 1008.5
20260901015403 72 170 2.0 5.0 0.00 0.00 0.00 40 1008.3
20260901014803 72 174 2.0 10.0 0.00 0.00 0.00 40 1008.3
20260901014203 72 180 3.0 10.0 0.00 0.00 0.00 39 1008.3
20260901013603 72 187 3.0 7.0 0.00 0.00 0.00 39 1008.3
20260901013003 72 196 2.0 7.0 0.00 0.00 0.00 40 1008.4
20260901012403 73 202 3.0 8.0 0.00 0.00 0.00 39 1008.3
20260901012018 73 200 3.0 9.0 0.00 0.00 0.00 39 1008.4
20260901011203 73 198 3.0 13.0 0.00 0.00 0.00 39 1008.5
20260901010603 74 202 4.0 13.0 0.00 0.00 0.00 38 1008.4
20260901010003 74 215 2.0 10.0 0.00 0.00 0.00 39 1008.4
20260901005618 74 202 1.0 5.0 0.00 0.00 0.00 40 1008.3
20260901004803 74 188 1.0 7.0 0.00 0.00 0.00 41 1008.2
20260901004203 74 175 2.0 9.0 0.00 0.00 0.00 40 1008.3
20260901003603 74 193 4.0 9.0 0.00 0.00 0.00 38 1008.4
20260901003218 74 201 3.0 9.0 0.00 0.00 0.00 38 1008.5
20260901002403 75 195 3.0 10.0 0.00 0.00 0.00 39 1008.2
20260901001803 75 199 2.0 10.0 0.00 0.00 0.00 39 1008.2
20260901001203 75 191 5.0 13.0 0.00 0.00 0.00 37 1008.2
20260901000603 75 202 5.0 13.0 0.00 0.00 0.00 37 1008.2
20260901000003 75 227 2.0 13.0 0.00 0.00 0.00 39 1008.2
20260831235403 75 221 2.0 7.0 0.00 0.00 0.00 38 1008.2
20260831234803 75 209 4.0 10.0 0.00 0.00 0.00 38 1008.2
20260831234203 75 201 3.0 10.0 0.00 0.00 0.00 37 1008.3
20260831233603 75 215 2.0 7.0 0.00 0.00 0.00 37 1008.4
20260831233218 75 203 3.0 10.0 0.00 0.00 0.00 37 1008.4
20260831232403 76 190 4.0 10.0 0.00 0.00 0.00 36 1008.6
20260831231804 76 175 3.0 12.0 0.00 0.00 0.00 36 1008.5
20260831231203 76 188 2.0 10.0 0.00 0.00 0.00 36 1008.5
20260831230603 76 240 4.0 10.0 0.00 0.00 0.00 36 1008.6
20260831230003 76 243 5.0 13.0 0.00 0.00 0.00 35 1008.5
20260831225617 76 237 4.0 13.0 0.00 0.00 0.00 36 1008.5
20260831224803 76 211 2.0 10.0 0.00 0.00 0.00 35 1008.4
20260831224203 76 214 3.0 15.0 0.00 0.00 0.00 34 1008.5
20260831223604 76 195 5.0 15.0 0.00 0.00 0.00 34 1008.4
20260831223004 76 183 4.0 14.0 0.00 0.00 0.00 33 1008.5
20260831222403 76 206 4.0 16.0 0.00 0.00 0.00 33 1008.5
20260831221803 76 190 2.0 10.0 0.00 0.00 0.00 34 1008.6
20260831221203 76 194 4.0 12.0 0.00 0.00 0.00 34 1008.7
20260831220603 76 187 3.0 12.0 0.00 0.00 0.00 34 1008.7
20260831220217 76 181 3.0 14.0 0.00 0.00 0.00 33 1008.7
20260831215403 76 198 5.0 17.0 0.00 0.00 0.00 33 1008.8
20260831214803 76 189 3.0 10.0 0.00 0.00 0.00 34 1008.8
20260831214203 76 187 5.0 10.0 0.00 0.00 0.00 36 1008.8
20260831213603 76 175 6.0 16.0 0.00 0.00 0.00 35 1008.9
20260831213217 75 173 5.0 16.0 0.00 0.00 0.00 37 1009.1
20260831212403 75 216 4.0 10.0 0.00 0.00 0.00 39 1009.0
20260831211803 75 211 3.0 10.0 0.00 0.00 0.00 41 1009.0
20260831211203 76 207 3.0 12.0 0.00 0.00 0.00 43 1008.9
20260831210603 76 237 4.0 12.0 0.00 0.00 0.00 42 1009.0
20260831210003 76 243 5.0 15.0 0.00 0.00 0.00 41 1008.9
20260831205618 76 245 4.0 15.0 0.00 0.00 0.00 41 1009.1
20260831204803 76 243 4.0 13.0 0.00 0.00 0.00 39 1008.9
20260831204203 76 235 5.0 13.0 0.00 0.00 0.00 42 1009.0
20260831203603 76 237 4.0 13.0 0.00 0.00 0.00 41 1008.9
20260831203003 77 245 2.0 12.0 0.00 0.00 0.00 41 1008.9
20260831202403 77 231 4.0 13.0 0.00 0.00 0.00 41 1008.9
20260831201804 77 225 5.0 13.0 0.00 0.00 0.00 40 1008.9
20260831201203 77 215 3.0 12.0 0.00 0.00 0.00 39 1009.0
20260831200603 77 247 3.0 12.0 0.00 0.00 0.00 40 1008.9
20260831200003 77 246 2.0 12.0 0.00 0.00 0.00 39 1008.7
20260831195403 78 236 4.0 10.0 0.00 0.00 0.00 39 1008.8
20260831194803 78 228 4.0 12.0 0.00 0.00 0.00 38 1008.8
20260831194203 78 217 3.0 12.0 0.00 0.00 0.00 37 1008.8
20260831193603 77 227 3.0 12.0 0.00 0.00 0.00 38 1008.7
20260831193003 78 246 4.0 12.0 0.00 0.00 0.00 36 1008.8
20260831192403 78 242 4.0 13.0 0.00 0.00 0.00 35 1008.9
20260831191803 79 235 6.0 15.0 0.00 0.00 0.00 35 1008.7
20260831191417 79 231 6.0 15.0 0.00 0.00 0.00 35 1008.7
20260831190603 79 228 3.0 13.0 0.00 0.00 0.00 37 1008.7
20260831190004 80 198 4.0 14.0 0.00 0.00 0.00 32 1008.7
20260831185403 79 197 7.0 14.0 0.00 0.00 0.00 26 1008.8
20260831184803 79 194 5.0 14.0 0.00 0.00 0.00 30 1008.7
20260831184203 79 186 4.0 13.0 0.00 0.00 0.00 29 1008.7
20260831183603 79 203 5.0 13.0 0.00 0.00 0.00 28 1008.8
20260831183003 79 209 5.0 13.0 0.00 0.00 0.00 30 1008.8
20260831182618 79 202 3.0 13.0 0.00 0.00 0.00 31 1008.7
20260831182017 79 149 1.0 6.0 0.00 0.00 0.00 31 1008.7
20260831181416 79 151 1.0 5.0 0.00 0.00 0.00 32 1008.7
20260831180603 78 122 2.0 7.0 0.00 0.00 0.00 31 1008.9
20260831180218 78 116 3.0 7.0 0.00 0.00 0.00 31 1008.9
20260831175403 78 123 1.0 7.0 0.00 0.00 0.00 31 1008.8
20260831174803 78 111 2.0 9.0 0.00 0.00 0.00 34 1009.0
20260831174203 77 129 3.0 9.0 0.00 0.00 0.00 33 1009.0
20260831173603 77 148 3.0 10.0 0.00 0.00 0.00 33 1009.0
20260831173004 77 164 4.0 10.0 0.00 0.00 0.00 33 1008.9
20260831172617 77 177 3.0 9.0 0.00 0.00 0.00 35 1008.9
20260831171803 76 173 2.0 7.0 0.00 0.00 0.00 35 1008.9
20260831171203 76 135 1.0 6.0 0.00 0.00 0.00 36 1008.9
20260831170604 76 120 1.0 9.0 0.00 0.00 0.00 41 1009.0
20260831170003 75 112 1.0 6.0 0.00 0.00 0.00 42 1009.0
20260831165403 75 116 1.0 5.0 0.00 0.00 0.00 42 1008.9
20260831164803 75 137 2.0 6.0 0.00 0.00 0.00 39 1008.9
20260831164203 74 148 1.0 5.0 0.00 0.00 0.00 42 1009.2
20260831163603 74 132 1.0 6.0 0.00 0.00 0.00 43 1009.1
20260831163004 73 120 2.0 7.0 0.00 0.00 0.00 43 1009.0
20260831162404 72 124 2.0 7.0 0.00 0.00 0.00 44 1009.2
20260831161803 71 119 2.0 6.0 0.00 0.00 0.00 47 1009.1
20260831161203 70 119 1.0 5.0 0.00 0.00 0.00 47 1009.3
20260831160603 69 116 2.0 7.0 0.00 0.00 0.00 48 1009.5
20260831160217 69 116 2.0 7.0 0.00 0.00 0.00 48 1009.6
20260831155403 68 110 1.0 6.0 0.00 0.00 0.00 50 1009.6
20260831154803 67 109 1.0 6.0 0.00 0.00 0.00 50 1009.4
20260831154203 67 108 1.0 5.0 0.00 0.00 0.00 50 1009.6
20260831153603 66 108 1.0 6.0 0.00 0.00 0.00 50 1009.8
20260831153003 66 116 2.0 6.0 0.00 0.00 0.00 51 1009.7
20260831152618 66 125 2.0 6.0 0.00 0.00 0.00 50 1009.7
20260831152018 65 125 1.0 8.0 0.00 0.00 0.00 51 1009.7
20260831151204 65 113 2.0 7.0 0.00 0.00 0.00 51 1009.6
20260831150817 65 115 3.0 7.0 0.00 0.00 0.00 50 1009.6
20260831150003 65 114 2.0 10.0 0.00 0.00 0.00 50 1009.3
20260831145403 65 111 2.0 10.0 0.00 0.00 0.00 50 1009.2
20260831144803 64 107 3.0 10.0 0.00 0.00 0.00 49 1009.1
20260831144203 64 104 5.0 12.0 0.00 0.00 0.00 49 1009.1
20260831143603 64 103 5.0 13.0 0.00 0.00 0.00 49 1009.1
20260831143003 64 105 4.0 13.0 0.00 0.00 0.00 48 1009.1
20260831142403 64 107 5.0 10.0 0.00 0.00 0.00 48 1009.0
20260831141803 64 106 4.0 12.0 0.00 0.00 0.00 48 1009.0
20260831141203 64 106 5.0 13.0 0.00 0.00 0.00 48 1008.9
20260831140603 64 109 5.0 12.0 0.00 0.00 0.00 48 1008.8
20260831140003 64 106 6.0 12.0 0.00 0.00 0.00 48 1008.3
20260831135618 64 105 6.0 14.0 0.00 0.00 0.00 47 1008.3
20260831134803 64 102 5.0 14.0 0.00 0.00 0.00 47 1008.2
20260831134417 64 101 6.0 13.0 0.00 0.00 0.00 47 1008.2
20260831133603 64 102 5.0 14.0 0.00 0.00 0.00 48 1008.2
20260831133218 64 101 5.0 14.0 0.00 0.00 0.00 48 1008.3
20260831132403 64 104 5.0 13.0 0.00 0.00 0.00 47 1008.2
20260831131804 64 103 6.0 13.0 0.00 0.00 0.00 48 1008.3
20260831131203 64 100 5.0 13.0 0.00 0.00 0.00 47 1008.3
20260831130818 64 100 5.0 12.0 0.00 0.00 0.00 47 1008.2
20260831130218 64 101 5.0 14.0 0.00 0.00 0.00 47 1008.1
20260831125403 65 101 5.0 12.0 0.00 0.00 0.00 47 1007.8
20260831125017 65 100 4.0 14.0 0.00 0.00 0.00 47 1007.8
20260831124203 65 99 5.0 16.0 0.00 0.00 0.00 47 1007.8
20260831123603 65 101 5.0 16.0 0.00 0.00 0.00 47 1007.8
20260831123003 65 104 5.0 13.0 0.00 0.00 0.00 47 1007.8
20260831122403 65 101 5.0 13.0 0.00 0.00 0.00 47 1007.8
20260831121803 65 97 5.0 12.0 0.00 0.00 0.00 47 1007.8
20260831121203 65 100 5.0 12.0 0.00 0.00 0.00 47 1007.8
20260831120603 65 99 6.0 14.0 0.00 0.00 0.00 47 1007.8
20260831120003 65 100 5.0 14.0 0.00 0.00 0.00 46 1007.8
20260831115403 65 102 5.0 12.0 0.00 0.00 0.00 47 1007.8
20260831114803 65 100 5.0 12.0 0.00 0.00 0.00 46 1007.8
20260831114203 65 97 5.0 13.0 0.00 0.00 0.00 46 1007.7
20260831113818 65 97 5.0 13.0 0.00 0.00 0.00 47 1007.8
20260831113004 65 99 4.0 12.0 0.00 0.00 0.00 46 1007.8
20260831112404 66 98 4.0 10.0 0.00 0.00 0.00 47 1007.6
20260831112018 66 99 3.0 10.0 0.00 0.00 0.00 46 1007.7
20260831111203 66 100 3.0 10.0 0.00 0.00 0.00 46 1007.6
20260831110603 66 101 4.0 10.0 0.00 0.00 0.00 46 1007.6
20260831110004 66 101 5.0 10.0 0.00 0.00 0.00 46 1007.7
20260831105616 66 101 4.0 10.0 0.00 0.00 0.00 46 1007.8
20260831104803 66 99 3.0 9.0 0.00 0.00 0.00 47 1007.7
20260831104203 66 96 3.0 12.0 0.00 0.00 0.00 47 1007.6
20260831103603 66 99 3.0 9.0 0.00 0.00 0.00 46 1007.7
20260831103003 66 93 3.0 10.0 0.00 0.00 0.00 46 1007.8
20260831102403 66 92 3.0 9.0 0.00 0.00 0.00 46 1007.7
20260831101803 66 92 4.0 9.0 0.00 0.00 0.00 46 1007.6
20260831101203 66 93 4.0 10.0 0.00 0.00 0.00 46 1007.7
20260831100603 66 94 4.0 10.0 0.00 0.00 0.00 46 1007.6
20260831100003 66 96 4.0 12.0 0.00 0.00 0.00 46 1007.7
20260831095403 66 99 4.0 12.0 0.00 0.00 0.00 46 1007.8
20260831094803 66 96 5.0 13.0 0.00 0.00 0.00 47 1007.7
20260831094203 66 97 4.0 12.0 0.00 0.00 0.00 47 1007.7
20260831093603 66 96 4.0 12.0 0.00 0.00 0.00 47 1007.7
20260831093218 66 96 5.0 12.0 0.00 0.00 0.00 47 1007.7
20260831092403 66 98 5.0 12.0 0.00 0.00 0.00 47 1007.7
20260831091803 66 93 4.0 13.0 0.00 0.00 0.00 47 1007.7
20260831091203 66 94 4.0 12.0 0.00 0.00 0.00 47 1007.7
20260831090817 66 96 4.0 13.0 0.00 0.00 0.00 46 1007.8
20260831090003 66 102 4.0 13.0 0.00 0.00 0.00 46 1007.8
20260831085403 67 100 5.0 13.0 0.00 0.00 0.00 46 1007.7
20260831084803 67 101 5.0 16.0 0.00 0.00 0.00 46 1007.7
20260831084203 67 98 4.0 14.0 0.00 0.00 0.00 46 1007.7
20260831083603 67 98 5.0 15.0 0.00 0.00 0.00 46 1007.6
20260831083003 67 101 5.0 15.0 0.00 0.00 0.00 45 1007.7
20260831082403 67 98 5.0 15.0 0.00 0.00 0.00 45 1007.7
20260831081803 67 99 5.0 13.0 0.00 0.00 0.00 45 1007.7
20260831081203 67 101 5.0 14.0 0.00 0.00 0.00 45 1007.8
20260831080819 67 101 6.0 14.0 0.00 0.00 0.00 45 1007.8
20260831080218 67 98 6.0 14.0 0.00 0.00 0.00 45 1007.8
20260831075403 67 98 5.0 15.0 0.00 0.00 0.00 45 1008.0
20260831074803 67 100 6.0 15.0 0.00 0.00 0.00 45 1008.1
20260831074203 67 96 4.0 13.0 0.00 0.00 0.00 46 1008.1
20260831073603 67 92 3.0 10.0 0.00 0.00 0.00 45 1008.1
20260831073003 67 87 3.0 12.0 0.00 0.00 0.00 45 1008.1
20260831072404 67 90 4.0 12.0 0.00 0.00 0.00 45 1008.1
20260831071803 67 93 4.0 9.0 0.00 0.00 0.00 46 1008.1
20260831071203 67 95 3.0 7.0 0.00 0.00 0.00 46 1008.0
20260831070603 67 95 3.0 7.0 0.00 0.00 0.00 45 1008.1
20260831070004 67 97 3.0 9.0 0.00 0.00 0.00 45 1008.1
20260831065403 67 100 3.0 9.0 0.00 0.00 0.00 45 1008.2
20260831064804 67 102 2.0 8.0 0.00 0.00 0.00 45 1008.3
20260831064203 67 105 2.0 6.0 0.00 0.00 0.00 45 1008.3
20260831063603 67 107 3.0 7.0 0.00 0.00 0.00 45 1008.3
20260831063217 67 108 3.0 7.0 0.00 0.00 0.00 45 1008.3
20260831062403 67 111 2.0 6.0 0.00 0.00 0.00 44 1008.4
20260831061803 67 112 3.0 6.0 0.00 0.00 0.00 44 1008.4
20260831061203 68 113 2.0 6.0 0.00 0.00 0.00 44 1008.4
20260831060603 68 113 1.0 5.0 0.00 0.00 0.00 44 1008.4
20260831060003 68 113 1.0 6.0 0.00 0.00 0.00 44 1008.7
20260831055617 68 113 1.0 6.0 0.00 0.00 0.00 44 1008.7
20260831055018 68 115 2.0 6.0 0.00 0.00 0.00 44 1008.7
20260831054203 68 118 2.0 6.0 0.00 0.00 0.00 43 1008.7
20260831053603 68 120 2.0 5.0 0.00 0.00 0.00 42 1008.8
20260831053003 67 126 2.0 6.0 0.00 0.00 0.00 42 1008.8
20260831052404 67 138 1.0 5.0 0.00 0.00 0.00 42 1008.9
20260831051803 67 149 2.0 5.0 0.00 0.00 0.00 41 1008.9
20260831051203 67 165 1.0 5.0 0.00 0.00 0.00 41 1008.9
20260831050604 67 208 0.0 4.0 0.00 0.00 0.00 41 1009.0
20260831050003 67 223 0.0 3.0 0.00 0.00 0.00 41 1009.1
20260831045403 67 223 0.0 3.0 0.00 0.00 0.00 41 1009.2
20260831044803 67 223 0.0 2.0 0.00 0.00 0.00 40 1009.2
20260831044203 68 223 0.0 2.0 0.00 0.00 0.00 40 1009.2
20260831043603 68 223 0.0 2.0 0.00 0.00 0.00 40 1009.2
20260831043004 68 223 0.0 2.0 0.00 0.00 0.00 40 1009.2
20260831042403 68 223 0.0 2.0 0.00 0.00 0.00 39 1009.2
20260831041803 69 223 0.0 2.0 0.00 0.00 0.00 39 1008.9
20260831041203 69 223 0.0 2.0 0.00 0.00 0.00 39 1008.9
20260831040604 69 223 0.0 2.0 0.00 0.00 0.00 38 1008.9
20260831040003 69 223 0.0 2.0 0.00 0.00 0.00 38 1009.3
20260831035403 69 223 0.0 3.0 0.00 0.00 0.00 38 1009.4
20260831034803 70 223 0.0 3.0 0.00 0.00 0.00 37 1009.3
20260831034203 70 223 0.0 3.0 0.00 0.00 0.00 37 1009.3
20260831033603 70 223 0.0 3.0 0.00 0.00 0.00 37 1009.3
20260831033004 70 223 0.0 2.0 0.00 0.00 0.00 37 1009.2
20260831032403 71 223 0.0 2.0 0.00 0.00 0.00 36 1009.0
20260831031803 71 223 0.0 4.0 0.00 0.00 0.00 36 1009.0
20260831031203 71 223 0.0 4.0 0.00 0.00 0.00 36 1009.0
20260831030603 71 223 0.0 2.0 0.00 0.00 0.00 36 1008.9
20260831030003 72 223 0.0 3.0 0.00 0.00 0.00 36 1009.3